TimeEST,TemperatureF,Dew PointF,Humidity,Sea Level PressureIn,VisibilityMPH,Wind Direction,Wind SpeedMPH,Gust SpeedMPH,PrecipitationIn,Events,Conditions,WindDirDegrees,DateUTC
12:45 AM,33.8,24.8,70,30.30,10.0,West,5.8,-,N/A,,Clear,270,2012-11-30 05:45:00
1:45 AM,30.2,24.8,80,30.30,10.0,WNW,5.8,-,N/A,,Clear,290,2012-11-30 06:45:00
2:45 AM,32.0,24.8,75,30.31,10.0,Calm,Calm,-,N/A,,Clear,0,2012-11-30 07:45:00
3:45 AM,28.4,24.8,86,30.31,10.0,Calm,Calm,-,N/A,,Mostly Cloudy,0,2012-11-30 08:45:00
4:45 AM,28.4,24.8,86,30.32,10.0,West,6.9,-,N/A,,Scattered Clouds,270,2012-11-30 09:45:00
5:45 AM,28.4,24.8,86,30.33,10.0,WSW,9.2,-,N/A,,Scattered Clouds,240,2012-11-30 10:45:00
6:45 AM,28.4,24.8,86,30.36,10.0,Calm,Calm,-,N/A,,Scattered Clouds,0,2012-11-30 11:45:00
7:45 AM,30.2,24.8,80,30.39,10.0,Calm,Calm,-,N/A,,Scattered Clouds,0,2012-11-30 12:45:00
8:45 AM,32.0,28.4,87,30.41,10.0,Calm,Calm,-,N/A,,Scattered Clouds,0,2012-11-30 13:45:00
9:45 AM,35.6,28.4,75,30.42,10.0,Variable,4.6,-,N/A,,Scattered Clouds,0,2012-11-30 14:45:00
11:45 AM,35.6,28.4,75,30.41,15.0,Variable,5.8,-,N/A,,Mostly Cloudy,0,2012-11-30 16:45:00
12:45 PM,35.6,26.6,70,30.40,15.0,Variable,5.8,-,N/A,,Mostly Cloudy,0,2012-11-30 17:45:00
1:45 PM,33.8,24.8,70,30.41,15.0,Variable,5.8,-,N/A,,Mostly Cloudy,0,2012-11-30 18:45:00
2:55 PM,33.8,24.8,70,30.42,15.0,ENE,9.2,-,N/A,,Overcast,70,2012-11-30 19:55:00
3:55 PM,32.0,24.8,75,30.42,15.0,ENE,9.2,-,N/A,,Overcast,70,2012-11-30 20:55:00
4:45 PM,30.2,24.8,80,30.43,12.0,East,11.5,-,N/A,,Overcast,80,2012-11-30 21:45:00
5:50 PM,28.4,24.8,86,30.45,10.0,East,9.2,-,N/A,,Overcast,80,2012-11-30 22:50:00
6:50 PM,28.4,24.8,86,30.47,10.0,Variable,4.6,-,N/A,,Overcast,0,2012-11-30 23:50:00
8:45 PM,26.6,21.2,80,30.47,10.0,ENE,9.2,-,N/A,,Overcast,70,2012-12-01 01:45:00
9:45 PM,28.4,23.0,80,30.47,10.0,ENE,8.1,-,N/A,,Overcast,70,2012-12-01 02:45:00
10:45 PM,28.4,23.0,80,30.48,10.0,ENE,8.1,-,N/A,,Overcast,70,2012-12-01 03:45:00
11:45 PM,28.4,23.0,80,30.49,5.0,Calm,Calm,-,N/A,Snow,Light Snow,0,2012-12-01 04:45:00